Torna al catalogo

FENGYUN 1C DEB

AttivoSSO
NORAD 30074·DEBRIS·🇨🇳 China

Lanciato May 10, 1999 da Taiyuan Satellite Launch Center

Loading…

Prossimi Passaggi (prossime 24 ore)

TLE

In scadenzaSource: Space-Track

Epoca: Sep 9, 2026, 03:55 UTC

1 30074U 99025QB  26252.16342704  .00001500  00000-0  77671-3 0  9990
2 30074  99.1132 328.6619 0096240 110.7379 250.4139 14.14083049  4535

Traccia FENGYUN 1C DEB in tempo reale con AllMySat

Download on the App Store